Flag Weather past 2 weeks in Nagoya, Japan

Now
61 °F

Partly cloudy.


Feels Like: 61 °F
Forecast: 53 / 68 °F
Wind: 13 mph from Southeast

Location: Nagoya Airport

Current Time: Nov 29, 2014 at 1:19:30 AM

Latest Report: Nov 29, 2014 at 12:30 AM


Visibility: N/A

Pressure: 30.07 "Hg

Humidity: 88%

Dew point: 57 °F

Location of NagoyaLocation

Historic Weather in Nagoya — Graph

°F

Nagoya temperature yesterday

Maximum temperature yesterday: 63 °F (at 2:00 PM)
Minimum temperature yesterday: 50 °F (at 2:00 AM)
Average temperature yesterday: 57 °F

Past Weeks' High & Low Weather Summary

 TemperatureHumidityPressure
High68 °F (Nov 23, 1:00 PM)100% (Nov 25, 9:30 AM)30.33 "Hg (Nov 25, 9:30 AM)
Low45 °F (Nov 21, 3:00 AM)31% (Nov 19, 12:00 PM)29.80 "Hg (Nov 25, 1:30 PM)
Average55 °F66%30.14 "Hg
* Reported Midnight between Nov 13 and Nov 14 — Midnight between Nov 28 and Nov 29, Nagoya, Weather by CustomWeather, © 2014

Note: Actual official high and low records may vary slightly from our data, if they occured in-between our weather recording intervals... More about our weather records

Advertising

Nagoya weather history for previous 24 hours

 ConditionsComfort  
Time TempWeatherWind HumidityBarometerVisibility
12:00 AM
Nov 29
59 °FPartly cloudy.12 mph88%30.07 "HgN/A
11:30 PM
Nov 28
61 °FPassing clouds.10 mph83%30.07 "HgN/A
11:00 PM61 °FPartly cloudy.7 mph83%30.09 "HgN/A
10:30 PM61 °FPassing clouds.9 mph83%30.09 "HgN/A
10:00 PM59 °FPartly cloudy.3 mph82%30.12 "HgN/A
9:30 PM59 °FPassing clouds.6 mph88%30.12 "HgN/A
9:00 PM59 °FPassing clouds.2 mph82%30.12 "HgN/A
8:30 PM59 °FPassing clouds.2 mph82%30.12 "HgN/A
8:00 PM59 °FPassing clouds.5 mph88%30.15 "HgN/A
7:30 PM61 °FPassing clouds.8 mph83%30.15 "HgN/A
7:00 PM61 °FPassing clouds.9 mph83%30.12 "HgN/A
6:30 PM61 °FPassing clouds.10 mph83%30.12 "HgN/A
6:00 PM61 °FPassing clouds.9 mph83%30.15 "HgN/A
5:30 PM61 °FPassing clouds.7 mph83%30.15 "HgN/A
5:00 PM61 °FPassing clouds.7 mph83%30.15 "HgN/A
4:30 PM61 °FPartly sunny.7 mph83%30.15 "HgN/A
4:00 PM61 °FBroken clouds.3 mph77%30.18 "HgN/A
3:30 PM61 °FPartly sunny.3 mph77%30.15 "HgN/A
3:00 PM61 °FPartly sunny.5 mph72%30.15 "HgN/A
2:30 PM61 °FPartly sunny.3 mph72%30.15 "HgN/A
2:00 PM63 °FPassing clouds.6 mph64%30.15 "HgN/A
1:30 PM61 °FPassing clouds.5 mph68%30.15 "HgN/A
1:00 PM61 °FScattered clouds.6 mph68%30.18 "HgN/A
12:30 PM59 °FPartly sunny.6 mph68%30.18 "HgN/A
12:00 PM57 °FBroken clouds.6 mph72%30.18 "HgN/A
11:30 AM59 °FScattered clouds.2 mph68%30.21 "HgN/A
11:00 AM57 °FScattered showers. Scattered clouds.5 mph72%30.24 "HgN/A
10:30 AM57 °FScattered showers. Scattered clouds.3 mph72%30.24 "HgN/A
10:00 AM57 °FScattered showers. Broken clouds.7 mph72%30.27 "HgN/A
9:30 AM55 °FScattered showers. Partly sunny.6 mph77%30.27 "HgN/A
9:00 AM55 °FSprinkles. Broken clouds.7 mph77%30.27 "HgN/A
8:30 AM55 °FSprinkles. Broken clouds.8 mph72%30.27 "HgN/A
8:00 AM55 °FPartly sunny.9 mph77%30.27 "HgN/A
7:30 AM55 °FScattered showers. Broken clouds.8 mph77%30.27 "HgN/A
7:00 AM54 °FPartly sunny.9 mph77%30.27 "HgN/A
6:30 AM54 °FPassing clouds.6 mph77%30.24 "HgN/A
6:00 AM54 °FPassing clouds.5 mph77%30.24 "HgN/A
5:30 AM54 °FPartly cloudy.8 mph72%30.24 "HgN/A
5:00 AM54 °FPartly cloudy.12 mph77%30.24 "HgN/A
4:30 AM54 °FPassing clouds.12 mph77%30.24 "HgN/A
4:00 AM52 °FPartly cloudy.12 mph82%30.24 "HgN/A
3:30 AM52 °FPassing clouds.13 mph82%30.24 "HgN/A
3:00 AM52 °FPassing clouds.6 mph82%30.24 "HgN/A
2:30 AM50 °FPassing clouds.9 mph82%30.24 "HgN/A
2:00 AM50 °FPassing clouds.6 mph88%30.24 "HgN/A
1:30 AM52 °FPassing clouds.7 mph77%30.24 "HgN/A
1:00 AM52 °FPassing clouds.7 mph77%30.24 "HgN/A
Weather by CustomWeather, © 2014

See weather overviewHow to use our weather pages